2022-02-12 00:03:07 r, 18.17m,0000000004Hz,0000101831c,0000000.221s,-014.6C,00002191
2022-02-12 00:13:06 r, 18.28m,0000000004Hz,0000112154c,0000000.243s,-014.9C,00002191
2022-02-12 00:23:05 r, 17.96m,0000000006Hz,0000083944c,0000000.182s,-015.2C,00002191
2022-02-12 00:33:06 r, 18.03m,0000000006Hz,0000089101c,0000000.193s,-015.2C,00002191
2022-02-12 00:43:08 r, 17.79m,0000000006Hz,0000072042c,0000000.156s,-015.5C,00002191
2022-02-12 00:53:05 r, 17.82m,0000000006Hz,0000074080c,0000000.161s,-015.2C,00002191
2022-02-12 01:03:08 r, 17.89m,0000000006Hz,0000078631c,0000000.171s,-015.2C,00002191
2022-02-12 01:13:06 r, 17.46m,0000000008Hz,0000052925c,0000000.115s,-014.9C,00002191
2022-02-12 01:23:05 r, 17.57m,0000000008Hz,0000058435c,0000000.127s,-014.9C,00002191
2022-02-12 01:33:05 r, 18.18m,0000000005Hz,0000102498c,0000000.222s,-014.6C,00002191
2022-02-12 01:43:07 r, 17.87m,0000000006Hz,0000077810c,0000000.169s,-014.6C,00002191
2022-02-12 01:53:05 r, 18.15m,0000000005Hz,0000099342c,0000000.216s,-014.2C,00002191
2022-02-12 02:03:05 r, 18.53m,0000000003Hz,0000141897c,0000000.308s,-014.6C,00002191
2022-02-12 02:13:08 r, 17.95m,0000000005Hz,0000083170c,0000000.180s,-014.2C,00002191
2022-02-12 02:23:05 r, 18.25m,0000000005Hz,0000109342c,0000000.237s,-014.2C,00002191
2022-02-12 02:33:05 r, 18.12m,0000000004Hz,0000097052c,0000000.211s,-014.2C,00002191
2022-02-12 02:43:08 r, 17.91m,0000000006Hz,0000080579c,0000000.175s,-014.2C,00002191
2022-02-12 02:53:05 r, 17.82m,0000000006Hz,0000073729c,0000000.160s,-014.2C,00002191
2022-02-12 03:03:05 r, 17.96m,0000000006Hz,0000083794c,0000000.182s,-014.2C,00002191
2022-02-12 03:13:06 r, 18.30m,0000000004Hz,0000114286c,0000000.248s,-013.9C,00002191
2022-02-12 03:23:05 r, 18.64m,0000000003Hz,0000157511c,0000000.342s,-013.6C,00002191
2022-02-12 03:33:05 r, 18.46m,0000000003Hz,0000133381c,0000000.289s,-013.6C,00002191
2022-02-12 03:43:06 r, 18.11m,0000000005Hz,0000096559c,0000000.210s,-013.6C,00002191
2022-02-12 03:53:05 r, 18.10m,0000000005Hz,0000094738c,0000000.206s,-013.3C,00002191
2022-02-12 04:03:05 r, 18.22m,0000000004Hz,0000106394c,0000000.231s,-012.9C,00002191
2022-02-12 04:13:06 r, 17.90m,0000000005Hz,0000079644c,0000000.173s,-012.6C,00002191
2022-02-12 04:23:05 r, 18.07m,0000000005Hz,0000092416c,0000000.201s,-012.3C,00002191
2022-02-12 04:33:05 r, 18.03m,0000000005Hz,0000089901c,0000000.195s,-012.0C,00002191
2022-02-12 04:43:08 r, 18.10m,0000000004Hz,0000095510c,0000000.207s,-011.7C,00002191
2022-02-12 04:53:05 r, 18.24m,0000000005Hz,0000108790c,0000000.236s,-011.7C,00002191
2022-02-12 05:03:05 r, 18.14m,0000000005Hz,0000098902c,0000000.215s,-011.3C,00002191
2022-02-12 05:13:06 r, 18.06m,0000000005Hz,0000091301c,0000000.198s,-011.3C,00002191
2022-02-12 05:23:05 r, 18.10m,0000000005Hz,0000094961c,0000000.206s,-011.3C,00002191
2022-02-12 05:33:05 r, 18.23m,0000000005Hz,0000107479c,0000000.233s,-011.0C,00002191
2022-02-12 05:43:06 r, 18.42m,0000000004Hz,0000127585c,0000000.277s,-010.7C,00002191
2022-02-12 05:53:05 r, 18.53m,0000000003Hz,0000141820c,0000000.308s,-010.7C,00002191
2022-02-12 06:03:05 r, 18.40m,0000000004Hz,0000125180c,0000000.272s,-010.7C,00002191
2022-02-12 06:13:07 r, 18.28m,0000000004Hz,0000113072c,0000000.245s,-010.4C,00002191
2022-02-12 06:23:05 r, 18.25m,0000000004Hz,0000109767c,0000000.238s,-010.4C,00002191
2022-02-12 06:33:05 r, 18.00m,0000000005Hz,0000087348c,0000000.190s,-010.4C,00002191
2022-02-12 06:43:08 r, 17.59m,0000000007Hz,0000059526c,0000000.129s,-010.0C,00002191
2022-02-12 06:53:05 r, 16.36m,0000000024Hz,0000019245c,0000000.042s,-010.0C,00002191
2022-02-12 07:03:05 r, 14.53m,0000000130Hz,0000000000c,0000000.000s,-010.0C,00002191
2022-02-12 07:13:08 r, 12.49m,0000000854Hz,0000000000c,0000000.000s,-010.0C,00002191
2022-02-12 07:23:05 r, 10.54m,0000005145Hz,0000000000c,0000000.000s,-010.0C,00002191
2022-02-12 07:33:05 r, 08.91m,0000023112Hz,0000000000c,0000000.000s,-010.0C,00002191
2022-02-12 07:43:06 r, 07.71m,0000069972Hz,0000000000c,0000000.000s,-010.0C,00002191
2022-02-12 07:53:07 r, 07.08m,0000124250Hz,0000000000c,0000000.000s,-010.0C,00002191
2022-02-12 08:03:05 r, 06.55m,0000202212Hz,0000000000c,0000000.000s,-010.4C,00002191
2022-02-12 08:13:07 r, 06.14m,0000298522Hz,0000000000c,0000000.000s,-010.4C,00002191
2022-02-12 08:23:06 r, 05.82m,0000398176Hz,0000000000c,0000000.000s,-010.0C,00002191
2022-02-12 08:33:05 r, 00.00m,0000482230Hz,0000000000c,0000000.000s,-008.8C,00002191
2022-02-12 08:43:06 r, 00.00m,0000570325Hz,0000000000c,0000000.000s,-007.5C,00002191
2022-02-12 08:53:08 r, 00.00m,0000599774Hz,0000000000c,0000000.000s,-006.5C,00002191
2022-02-12 09:03:05 r, 00.00m,0000599853Hz,0000000000c,0000000.000s,-005.5C,00002191
2022-02-12 09:13:08 r, 00.00m,0000599616Hz,0000000000c,0000000.000s,-004.9C,00002191
2022-02-12 09:23:05 r, 00.00m,0000599702Hz,0000000000c,0000000.000s,-004.2C,00002191
2022-02-12 09:33:05 r, 00.00m,0000599656Hz,0000000000c,0000000.000s,-003.6C,00002191
2022-02-12 09:43:06 r, 00.00m,0000599557Hz,0000000000c,0000000.000s,-003.0C,00002191
2022-02-12 09:53:07 r, 00.00m,0000599497Hz,0000000000c,0000000.000s,-003.0C,00002191
2022-02-12 10:03:05 r, 00.00m,0000599481Hz,0000000000c,0000000.000s,-003.0C,00002191
2022-02-12 10:13:07 r, 00.00m,0000599488Hz,0000000000c,0000000.000s,-003.0C,00002191
2022-02-12 10:23:06 r, 00.00m,0000599506Hz,0000000000c,0000000.000s,-003.0C,00002191
2022-02-12 10:33:05 r, 00.00m,0000599441Hz,0000000000c,0000000.000s,-002.6C,00002191
2022-02-12 10:43:06 r, 00.00m,0000599326Hz,0000000000c,0000000.000s,-002.0C,00002191
2022-02-12 10:53:08 r, 00.00m,0000599319Hz,0000000000c,0000000.000s,-002.0C,00002191
2022-02-12 11:03:05 r, 00.00m,0000599255Hz,0000000000c,0000000.000s,-001.7C,00002191
2022-02-12 11:13:05 r, 00.00m,0000599232Hz,0000000000c,0000000.000s,-001.0C,00002191
2022-02-12 11:23:06 r, 00.00m,0000599197Hz,0000000000c,0000000.000s, 000.1C,00002191
2022-02-12 11:33:05 r, 00.00m,0000599035Hz,0000000000c,0000000.000s, 000.6C,00002191
2022-02-12 11:43:08 r, 00.00m,0000599033Hz,0000000000c,0000000.000s, 000.9C,00002191
2022-02-12 11:53:06 r, 00.00m,0000599057Hz,0000000000c,0000000.000s, 000.9C,00002191
2022-02-12 12:03:06 r, 00.00m,0000599040Hz,0000000000c,0000000.000s, 001.2C,00002191
2022-02-12 12:13:06 r, 00.00m,0000598941Hz,0000000000c,0000000.000s, 002.9C,00002191
2022-02-12 12:23:07 r, 00.00m,0000598758Hz,0000000000c,0000000.000s, 004.1C,00002191
2022-02-12 12:33:05 r, 00.00m,0000598728Hz,0000000000c,0000000.000s, 004.5C,00002191
2022-02-12 12:43:05 r, 00.00m,0000598701Hz,0000000000c,0000000.000s, 004.5C,00002191
2022-02-12 12:53:08 r, 00.00m,0000598859Hz,0000000000c,0000000.000s, 004.5C,00002191
2022-02-12 13:03:05 r, 00.00m,0000598683Hz,0000000000c,0000000.000s, 005.4C,00002191
2022-02-12 13:13:07 r, 00.00m,0000598629Hz,0000000000c,0000000.000s, 005.4C,00002191
2022-02-12 13:23:06 r, 00.00m,0000598798Hz,0000000000c,0000000.000s, 005.1C,00002191
2022-02-12 13:33:05 r, 00.00m,0000598776Hz,0000000000c,0000000.000s, 004.5C,00002191
2022-02-12 13:43:08 r, 00.00m,0000598709Hz,0000000000c,0000000.000s, 004.8C,00002191
2022-02-12 13:53:06 r, 00.00m,0000598739Hz,0000000000c,0000000.000s, 005.1C,00002191
2022-02-12 14:03:05 r, 00.00m,0000598732Hz,0000000000c,0000000.000s, 005.1C,00002191
2022-02-12 14:13:08 r, 00.00m,0000598857Hz,0000000000c,0000000.000s, 004.5C,00002191
2022-02-12 14:23:06 r, 00.00m,0000598970Hz,0000000000c,0000000.000s, 003.2C,00002191
2022-02-12 14:33:05 r, 00.00m,0000598955Hz,0000000000c,0000000.000s, 002.2C,00002191
2022-02-12 14:43:05 r, 00.00m,0000599063Hz,0000000000c,0000000.000s, 001.2C,00002191
2022-02-12 14:53:05 r, 00.00m,0000599061Hz,0000000000c,0000000.000s, 000.6C,00002191
2022-02-12 15:03:05 r, 00.00m,0000599021Hz,0000000000c,0000000.000s, 001.9C,00002191
2022-02-12 15:13:06 r, 00.00m,0000599035Hz,0000000000c,0000000.000s, 002.9C,00002191
2022-02-12 15:23:08 r, 00.00m,0000599021Hz,0000000000c,0000000.000s, 002.9C,00002191
2022-02-12 15:33:05 r, 00.00m,0000599011Hz,0000000000c,0000000.000s, 002.9C,00002191
2022-02-12 15:43:07 r, 00.00m,0000599030Hz,0000000000c,0000000.000s, 002.9C,00002191
2022-02-12 15:53:06 r, 00.00m,0000599043Hz,0000000000c,0000000.000s, 002.9C,00002191
2022-02-12 16:03:05 r, 00.00m,0000598989Hz,0000000000c,0000000.000s, 002.5C,00002191
2022-02-12 16:13:08 r, 00.00m,0000599031Hz,0000000000c,0000000.000s, 001.9C,00002191
2022-02-12 16:23:06 r, 00.00m,0000599204Hz,0000000000c,0000000.000s, 001.2C,00002191
2022-02-12 16:33:05 r, 00.00m,0000599241Hz,0000000000c,0000000.000s, 000.6C,00002191
2022-02-12 16:43:08 r, 00.00m,0000593882Hz,0000000000c,0000000.000s, 000.3C,00002191
2022-02-12 16:53:06 r, 00.00m,0000506983Hz,0000000000c,0000000.000s, 000.1C,00002191
2022-02-12 17:03:05 r, 00.00m,0000416420Hz,0000000000c,0000000.000s,-000.7C,00002191
2022-02-12 17:13:06 r, 06.05m,0000322114Hz,0000000000c,0000000.000s,-001.7C,00002191
2022-02-12 17:23:06 r, 06.42m,0000227627Hz,0000000000c,0000000.000s,-002.3C,00002191
2022-02-12 17:33:05 r, 06.97m,0000137255Hz,0000000000c,0000000.000s,-003.0C,00002191
2022-02-12 17:43:07 r, 07.79m,0000064859Hz,0000000000c,0000000.000s,-003.9C,00002191
2022-02-12 17:53:06 r, 08.99m,0000021447Hz,0000000000c,0000000.000s,-004.9C,00002191
2022-02-12 18:03:05 r, 10.69m,0000004511Hz,0000000000c,0000000.000s,-006.2C,00002191
2022-02-12 18:13:08 r, 12.77m,0000000659Hz,0000000000c,0000000.000s,-007.1C,00002191
2022-02-12 18:23:06 r, 14.86m,0000000095Hz,0000004854c,0000000.011s,-007.8C,00002191
2022-02-12 18:33:05 r, 16.54m,0000000021Hz,0000022422c,0000000.049s,-008.1C,00002191
2022-02-12 18:43:05 r, 17.49m,0000000008Hz,0000054042c,0000000.117s,-008.4C,00002191
2022-02-12 18:53:06 r, 17.82m,0000000007Hz,0000073739c,0000000.160s,-009.1C,00002191
2022-02-12 19:03:05 r, 17.83m,0000000006Hz,0000074501c,0000000.162s,-009.4C,00002191
2022-02-12 19:13:05 r, 17.72m,0000000006Hz,0000067466c,0000000.146s,-009.7C,00002191
2022-02-12 19:23:07 r, 17.57m,0000000008Hz,0000058456c,0000000.127s,-010.0C,00002191
2022-02-12 19:33:05 r, 17.31m,0000000010Hz,0000046184c,0000000.100s,-010.4C,00002191
2022-02-12 19:43:05 r, 17.05m,0000000013Hz,0000036175c,0000000.079s,-010.4C,00002191
2022-02-12 19:53:08 r, 16.76m,0000000016Hz,0000027749c,0000000.060s,-010.0C,00002191
2022-02-12 20:03:05 r, 16.47m,0000000022Hz,0000021201c,0000000.046s,-010.4C,00002191
2022-02-12 20:13:05 r, 16.26m,0000000026Hz,0000017597c,0000000.038s,-010.4C,00002191
2022-02-12 20:23:08 r, 16.12m,0000000030Hz,0000015451c,0000000.034s,-010.4C,00002191
2022-02-12 20:33:05 r, 15.99m,0000000033Hz,0000013735c,0000000.030s,-010.0C,00002191
2022-02-12 20:43:05 r, 15.87m,0000000037Hz,0000012250c,0000000.027s,-009.7C,00002191
2022-02-12 20:53:06 r, 15.76m,0000000042Hz,0000011035c,0000000.024s,-009.7C,00002191
2022-02-12 21:03:05 r, 15.67m,0000000045Hz,0000010156c,0000000.022s,-010.0C,00002191
2022-02-12 21:13:05 r, 15.59m,0000000049Hz,0000009437c,0000000.020s,-010.4C,00002191
2022-02-12 21:23:06 r, 15.52m,0000000051Hz,0000008895c,0000000.019s,-010.7C,00002191
2022-02-12 21:33:05 r, 15.49m,0000000054Hz,0000008581c,0000000.019s,-010.7C,00002191
2022-02-12 21:43:05 r, 15.45m,0000000055Hz,0000008367c,0000000.018s,-011.0C,00002191
2022-02-12 21:53:07 r, 15.45m,0000000055Hz,0000008330c,0000000.018s,-011.3C,00002191
2022-02-12 22:03:05 r, 15.47m,0000000055Hz,0000008454c,0000000.018s,-012.0C,00002191
2022-02-12 22:13:05 r, 15.50m,0000000053Hz,0000008724c,0000000.019s,-012.3C,00002191
2022-02-12 22:23:08 r, 15.55m,0000000050Hz,0000009150c,0000000.020s,-012.3C,00002191
2022-02-12 22:33:05 r, 15.64m,0000000047Hz,0000009913c,0000000.022s,-012.6C,00002191
2022-02-12 22:43:05 r, 15.76m,0000000041Hz,0000011068c,0000000.024s,-012.6C,00002191
2022-02-12 22:53:06 r, 15.92m,0000000037Hz,0000012742c,0000000.028s,-012.9C,00002191
2022-02-12 23:03:05 r, 16.07m,0000000032Hz,0000014690c,0000000.032s,-013.3C,00002191
2022-02-12 23:13:05 r, 16.23m,0000000027Hz,0000017128c,0000000.037s,-013.6C,00002191
2022-02-12 23:23:06 r, 16.48m,0000000022Hz,0000021501c,0000000.047s,-013.6C,00002191
2022-02-12 23:33:05 r, 16.79m,0000000016Hz,0000028608c,0000000.062s,-013.6C,00002191
2022-02-12 23:43:05 r, 17.05m,0000000013Hz,0000036414c,0000000.079s,-013.6C,00002191
2022-02-12 23:53:07 r, 17.24m,0000000010Hz,0000043013c,0000000.093s,-013.3C,00002191
